#timestamp,LO_Frequency,Hit,StdDev 
1605279615.5,286046999.2,N
1605279635.3,286046998.9,N
1605279655.2,286046999.0,N
1605279675.0,286046999.3,N
1605279675.9,286046999.3,N
1605279695.8,286046998.4,N
1605279715.6,286046999.4,N
1605279735.4,286046999.3,N
1605279755.3,286046999.1,N
1605279775.1,286046998.4,N
1605279795.8,286046999.3,N
1605279815.7,286046999.5,N
1605279835.5,286046999.3,N
1605279855.4,286046998.4,N
1605279875.2,286046996.5,Y
1605279895.0,286046996.5,P
1605279895.9,286046996.5,N
1605279915.8,286046999.2,N
1605279935.6,286046999.0,N
1605279955.4,286046998.3,N
1605279975.3,286046996.9,N
1605279995.1,286046999.2,N
1605280015.9,286046998.8,N
1605280035.7,286046999.4,N
1605280055.5,286046998.3,N
1605280075.4,286046999.2,N
1605280095.2,286046998.4,N
1605280115.1,286046999.1,N
1605280116.0,286046999.1,N
1605280135.8,286046999.3,N
1605280155.6,286046999.2,N
1605280175.5,286046999.3,N
1605280195.3,286046998.9,N
1605280215.2,286046996.9,Y
1605280235.9,286047001.2,P
1605280255.7,286047000.6,N
1605280275.6,286047001.1,N
1605280295.4,286047000.9,N
1605280315.2,286047001.2,N
1605280335.1,286046998.6,N
1605280336.0,286046998.6,N
1605280355.8,286046998.7,N
1605280375.7,286046998.5,N
1605280395.5,286046998.1,N
1605280415.3,286047001.2,N
1605280435.2,286046998.5,N
1605280455.0,286046998.5,N
1605280455.9,286046998.5,N
1605280475.8,286047001.1,N
1605280495.6,286047000.5,N
1605280515.4,286047001.2,N
1605280535.3,286047001.1,N
1605280555.1,286047000.5,N
1605280575.8,286047001.2,N
1605280595.7,286046998.2,N
1605280615.5,286046998.5,N
1605280635.4,286047000.3,N
1605280655.2,286047000.3,N
1605280675.0,286047000.5,N
1605280675.9,286047000.5,N
1605280695.8,286047001.0,N
1605280715.6,286047000.6,N
1605280735.5,286047000.9,N
1605280755.3,286047000.6,N
1605280775.1,286047002.8,N
1605280795.9,286047002.3,N
1605280815.7,286047000.1,N
1605280835.5,286047000.2,N
1605280855.4,286047001.6,N
1605280875.2,286047000.0,N
1605280895.1,286047002.8,N
1605280896.0,286047002.8,N
1605280915.8,286047002.8,N
1605280935.6,286047002.4,N
1605280955.5,286046999.9,N
1605280975.3,286047000.3,N
1605280995.2,286047000.3,N
1605281015.9,286047002.8,N
1605281035.7,286047000.1,N
1605281055.6,286047001.0,N
1605281075.4,286047000.0,N
1605281095.3,286047000.6,N
1605281115.1,286047000.6,N
1605281116.0,286047000.6,N
1605281135.8,286046999.9,N
1605281155.7,286047002.8,N
1605281175.5,286047002.7,N
1605281195.3,286046999.8,N
1605281215.2,286047000.1,N
1605281235.0,286047000.5,N
1605281235.9,286047000.5,N
1605281255.8,286047000.0,N
1605281275.6,286047000.1,N
1605281295.4,286047000.6,N
1605281315.3,286047000.2,N
1605281335.1,286047000.1,N
1605281355.9,286047002.8,N
1605281375.7,286047002.8,N
1605281395.5,286047000.0,N
1605281415.4,286046999.9,N
1605281435.2,286046999.8,N
1605281455.0,286047000.2,N
1605281456.0,286047000.2,N
1605281475.8,286047000.2,N
1605281495.6,286047000.0,N
1605281515.5,286046999.7,N
1605281535.3,286047002.4,N
1605281555.1,286047002.1,N
1605281575.9,286047002.0,N
1605281595.7,286047001.9,N
1605281615.6,286047002.3,N
1605281635.4,286047001.4,N
1605281655.2,286047002.2,N
1605281675.1,286047000.2,N
1605281676.0,286047000.2,N
1605281695.8,286047002.2,N
1605281715.7,286047002.5,N
1605281735.5,286047002.0,N
1605281755.3,286047002.2,N
1605281775.2,286047002.5,N
1605281795.0,286047002.8,N
1605281795.9,286047002.8,N
1605281815.7,286047001.6,N
1605281835.6,286046999.7,N
1605281855.4,286047000.2,N
1605281875.3,286047002.3,N
1605281895.1,286047002.8,N
1605281915.8,286047002.0,N
1605281935.7,286047002.1,N
1605281955.5,286047002.4,N
1605281975.4,286047002.3,N
1605281995.2,286047002.5,N
1605282015.0,286047002.0,N
1605282015.9,286047002.0,N
1605282035.8,286047002.1,N
1605282055.6,286047001.3,N
1605282075.5,286047001.5,N
1605282095.3,286047002.1,N
1605282115.1,286047002.8,Y
1605282135.9,286047001.0,P
1605282155.7,286047000.8,N
1605282175.5,286047000.4,N
1605282195.4,286047000.5,N
1605282215.2,286047000.9,N
1605282235.1,286047000.7,N
1605282236.0,286047000.7,N
1605282255.8,286046999.9,N
1605282275.6,286046999.9,N
1605282295.5,286046999.9,N
1605282315.3,286047002.7,Y
1605282335.2,286047000.8,P
1605282355.9,286047000.8,P
1605282375.7,286046999.9,N
1605282395.6,286047000.9,N
1605282415.4,286047000.7,N
1605282435.2,286047000.9,N
1605282455.1,286046998.1,Y
1605282456.0,286046998.1,P
1605282475.8,286046998.6,N
1605282495.7,286046998.5,N
1605282515.5,286047000.8,N
1605282535.3,286046998.1,N
1605282555.2,286046998.1,N
1605282575.0,286046998.2,N
1605282575.9,286046998.2,N
1605282595.8,286047001.2,N
1605282615.6,286047000.4,N
1605282635.4,286047001.2,N
1605282655.3,286046998.6,N
1605282675.1,286047001.2,N
1605282695.9,286046998.2,N
1605282715.7,286047000.9,N
1605282735.5,286047000.8,N
1605282755.4,286047000.4,N
1605282775.2,286047000.8,N
1605282795.0,286047000.5,N
1605282795.9,286047000.5,N
1605282815.8,286046998.6,N
1605282835.6,286047000.9,N
1605282855.5,286047000.8,N
1605282875.3,286047001.1,N
1605282895.1,286047000.7,N
1605282915.9,286047001.1,N
1605282935.7,286047000.3,N
1605282955.6,286047002.7,N
1605282975.4,286047000.3,N
1605282995.2,286047000.7,N
1605283015.1,286046999.9,N
1605283016.0,286046999.9,N
1605283035.8,286047000.1,N
1605283055.6,286047002.8,N
1605283075.5,286047002.4,N
1605283095.3,286047000.9,N
1605283115.2,286047000.5,N
1605283135.9,286047000.0,N
1605283155.7,286047000.8,N
1605283175.6,286047000.5,N
1605283195.4,286047000.0,N
